TimePDT,TemperatureF,Dew PointF,Humidity,Sea Level PressureIn,VisibilityMPH,Wind Direction,Wind SpeedMPH,Gust SpeedMPH,PrecipitationIn,Events,Conditions,WindDirDegrees,DateUTC
12:53 AM,55.0,51.1,86,30.08,10.0,West,6.9,-,N/A,,Clear,260,2013-08-19 07:53:00
1:53 AM,53.1,51.1,93,30.08,10.0,Calm,Calm,-,N/A,,Overcast,0,2013-08-19 08:53:00
2:53 AM,55.9,52.0,87,30.07,10.0,WSW,6.9,-,N/A,,Mostly Cloudy,240,2013-08-19 09:53:00
3:53 AM,55.9,52.0,87,30.07,10.0,WSW,4.6,-,N/A,,Mostly Cloudy,250,2013-08-19 10:53:00
4:53 AM,57.9,53.1,84,30.08,10.0,Calm,Calm,-,N/A,,Overcast,0,2013-08-19 11:53:00
5:53 AM,55.9,52.0,87,30.09,10.0,SSE,3.5,-,N/A,,Overcast,160,2013-08-19 12:53:00
6:53 AM,54.0,52.0,93,30.09,6.0,Calm,Calm,-,N/A,,Overcast,0,2013-08-19 13:53:00
7:53 AM,57.0,54.0,89,30.10,10.0,Calm,Calm,-,N/A,,Overcast,0,2013-08-19 14:53:00
8:53 AM,55.9,53.1,90,30.11,10.0,East,3.5,-,N/A,,Overcast,100,2013-08-19 15:53:00
9:53 AM,62.1,54.0,75,30.12,10.0,Calm,Calm,-,N/A,,Mostly Cloudy,0,2013-08-19 16:53:00
10:53 AM,64.0,54.0,70,30.12,10.0,Calm,Calm,-,N/A,,Overcast,0,2013-08-19 17:53:00
11:53 AM,64.9,54.0,68,30.13,10.0,ESE,4.6,-,N/A,,Overcast,120,2013-08-19 18:53:00
12:53 PM,66.0,57.0,73,30.14,5.0,SW,6.9,-,0.00,Rain,Light Rain,230,2013-08-19 19:53:00
1:53 PM,71.1,55.0,57,30.13,10.0,Variable,5.8,-,0.00,,Overcast,0,2013-08-19 20:53:00
2:53 PM,68.0,54.0,61,30.14,10.0,Variable,6.9,-,N/A,,Overcast,0,2013-08-19 21:53:00
3:53 PM,70.0,57.0,63,30.12,10.0,SSW,9.2,-,N/A,,Mostly Cloudy,200,2013-08-19 22:53:00
4:53 PM,66.0,53.1,63,30.12,10.0,SW,12.7,16.1,N/A,,Partly Cloudy,230,2013-08-19 23:53:00
5:53 PM,68.0,48.0,49,30.10,10.0,SW,11.5,-,N/A,,Partly Cloudy,230,2013-08-20 00:53:00
6:53 PM,62.1,51.1,67,30.09,10.0,SW,9.2,-,N/A,,Clear,230,2013-08-20 01:53:00
7:53 PM,60.1,48.9,67,30.08,10.0,SW,10.4,16.1,N/A,,Clear,230,2013-08-20 02:53:00
8:53 PM,57.9,50.0,75,30.09,10.0,Variable,5.8,-,N/A,,Clear,0,2013-08-20 03:53:00
9:53 PM,55.9,51.1,84,30.10,10.0,WSW,5.8,-,N/A,,Clear,250,2013-08-20 04:53:00
10:53 PM,55.0,51.1,86,30.11,10.0,WSW,3.5,-,N/A,,Clear,240,2013-08-20 05:53:00
11:53 PM,55.0,51.1,86,30.12,10.0,WSW,4.6,-,N/A,,Clear,240,2013-08-20 06:53:00